Regional Weather Roundup
Issued by NWS

Home | Current Version | Previous Version | Text Only | Print | Product List | Glossary Off
Versions: 1 2 3 4 5 6 7 8 9 10 11 12 13 14 15 16 17 18 19 20 21 22 23 24 25 26 27 28 29 30 31 32 33 34 35 36 37 38 39 40 41 42 43 44 45 46 47 48 49 50

000
ASUS43 KLMK 200202
RWRKY
KENTUCKY REGIONAL WEATHER ROUNDUP
NATIONAL WEATHER SERVICE LOUISVILLE KY
900 PM EST FRI DEC 19 2014

NOTE "FAIR" INDICATES FEW OR NO CLOUDS BELOW 12,000 FEET
WITH NO SIGNIFICANT WEATHER AND/OR OBSTRUCTIONS TO VISIBILITY.

KYZ001>023-026-027-061>063-070>075-200300-
WESTERN AND SOUTH CENTRAL KENTUCKY

CITY           SKY/WX    TMP DP  RH WIND       PRES   REMARKS
PADUCAH        CLOUDY    37  27  67 NE9       30.24F WCI  30
HENDERSON      CLOUDY    34  25  69 NE9       30.28S WCI  26
OWENSBORO      CLOUDY    33  25  73 NE7       30.27F WCI  27
HOPKINSVILLE   CLOUDY    35  28  76 NE7       30.24S WCI  29
BOWLING GREEN  MOCLDY    32  25  75 NE3       30.25F
GLASGOW        NOT AVBL
$$

KYZ024-025-028>034-038-045-046-053-200300-
NORTH CENTRAL KENTUCKY

CITY           SKY/WX    TMP DP  RH WIND       PRES   REMARKS
LOUISVILLE/SDF CLOUDY    29  22  75 NE7       30.28F WCI  22
LOUISVILLE/LOU PTCLDY    29  21  72 N5        30.29F WCI  24
FORT KNOX      PTCLDY    28  22  76 NE6       30.25F WCI  22
$$

KYZ035>037-039>044-047>052-055>060-089>105-200300-
NORTHEAST KENTUCKY

CITY           SKY/WX    TMP DP  RH WIND       PRES   REMARKS
LEXINGTON      CLEAR     24  20  84 NE7       30.27S WCI  16
COVINGTON      CLOUDY    30  20  66 CALM      30.28F
FRANKFORT      CLEAR     27  20  75 NE5       30.27S WCI  22
$$

KYZ054-064>069-076>088-106>120-200300-
SOUTHEAST KENTUCKY

CITY           SKY/WX    TMP DP  RH WIND       PRES   REMARKS
JACKSON        PTCLDY    29  21  72 VRB6      30.22F WCI  23
LONDON         MOCLDY    32  23  69 NE5       30.22F WCI  27
SOMERSET       NOT AVBL
MIDDLESBORO    NOT AVBL
MONTICELLO     PTCLDY    30  25  82 CALM      30.26S
$$




USA.gov is the U.S. government's official web portal to all federal, state and local government web resources and services.